Regional Weather Roundup
Issued by NWS

Home | Current Version | Previous Version | Graphics & Text | Print | Product List | Glossary On
Versions: 1 2 3 4 5 6 7 8 9 10 11 12 13 14 15 16 17 18 19 20 21 22 23 24 25 26 27 28 29 30 31 32 33 34 35 36 37 38 39 40 41 42 43 44 45 46 47 48 49 50
000
ASUS43 KDTX 291010
RWRMI
MICHIGAN HOURLY REGIONAL WEATHER ROUNDUP
NATIONAL WEATHER SERVICE DETROIT/PONTIAC MI
600 AM EDT WED JUL 29 2015

NOTE: "FAIR" INDICATES FEW OR NO CLOUDS BELOW 12,000 FEET WITH NO
SIGNIFICANT WEATHER AND/OR OBSTRUCTION TO VISIBILITY.

MIZ047>049-052>055-059>063-066>070-074>076-081>083-291100-
SOUTHEAST LOWER MICHIGAN

CITY           SKY/WX    TMP DP  RH WIND       PRES   REMARKS
ADRIAN         PTCLDY    66  64  93 W3        29.97S
ALMA           CLOUDY    66  64  91 CALM      29.95R
ANN ARBOR      PTCLDY    64  64 100 CALM      29.96R
BAD AXE        PTCLDY    63  60  92 CALM      29.96R
DETROIT CITY   PTCLDY    70  63  78 SE3       29.96S
DETROIT        CLOUDY    71  66  84 CALM      29.96R
FLINT          CLEAR     68  62  81 CALM      29.95R
GROSSE ILE     PTCLDY    72  68  88 CALM      29.94S
HILLSDALE      CLEAR     70  66  86 S3        29.98R
HOWELL         PTCLDY    67  65  93 CALM      29.96R

CITY           SKY/WX    TMP DP  RH WIND       PRES   REMARKS
JACKSON        PTCLDY    70  63  78 SW3       29.96S
LAMBERTVILLE   PTCLDY    67  65  91 CALM      29.96S FOG
LANSING        PTCLDY    72  61  68 S6        29.96R
LAPEER         NOT AVBL
MASON          PTCLDY    68  61  80 CALM      29.96R HAZE
MONROE         PTCLDY    66  65  96 CALM      29.95R
MT. CLEMENS    DRIZZLE   64  63  94 CALM      29.94S
PONTIAC        MOCLDY    67  63  87 CALM      29.96R
PORT HOPE        N/A     70  63  78 SW5       29.93R
PORT HURON     FOG       59  59 100 CALM      29.96S VSB 1/2
TRI CITIES     MOCLDY    70  62  76 S6        29.95R
YPSILANTI      PTCLDY    68  62  81 CALM      29.96S
$$
MIZ043>046-050>051-056>058-064>065-071>073-077>080-291100-
SOUTHWEST LOWER MICHIGAN

CITY           SKY/WX    TMP DP  RH WIND       PRES   REMARKS
BATTLE CREEK   MOCLDY    73  63  70 S5        29.96R
BENTON HARBOR  CLOUDY    75  70  84 S3        29.92S
BIG RAPIDS     MOCLDY    70  65  83 CALM      29.93S
COLDWATER      PTCLDY    70  63  76 CALM      29.96S
HOLLAND        MOCLDY    74  67  78 S3        29.93S
GRAND RAPIDS   CLOUDY    73  64  73 S6        29.93S
KALAMAZOO      MOCLDY    73  64  73 S5        29.95S
MARSHALL       PTCLDY    72  63  73 S3        29.95S
MUSKEGON       MOCLDY    74  66  76 S5        29.92S
$$
MIZ016>042-291100-
NORTHERN LOWER MICHIGAN

CITY           SKY/WX    TMP DP  RH WIND       PRES   REMARKS
ALPENA         PTCLDY    65  61  87 CALM      29.92R
BEAVER ISLAND  MOCLDY    72  64  78 SE8       29.85S
BELLAIRE       PTCLDY    70  64  79 CALM      29.88F
CADILLAC       MOCLDY    74  64  71 S7        29.93S
CHARLEVOIX     PTCLDY    73  63  69 S6        29.89F
FRANKFORT      PTSUNNY   76  68  75 SW9       29.87S
GAYLORD        MOCLDY    73  64  73 S8        29.93S
GRAYLING       MOCLDY    64  62  93 CALM      29.94S
HARBOR SPRINGS PTCLDY    75  63  66 S6        29.87F
HOUGHTON LAKE  MOCLDY    73  62  68 S9        29.95R
MANISTEE       MOCLDY    72  63  73 CALM      29.89S
OSCODA         PTCLDY    67  66  96 S3        29.93R
PELLSTON       PTCLDY    68  62  81 SE5       29.87F
TRAVERSE CITY  PTCLDY    75  63  66 CALM      29.86S
$$
MIZ007>008-015-291100-
EASTERN UPPER MICHIGAN

CITY           SKY/WX    TMP DP  RH WIND       PRES   REMARKS
KINROSS        PTCLDY    72  64  78 S9        29.87S
MACKINAC ISLAN PTCLDY    72  64  75 S9        29.86S
$$
MIZ004>006-011>014-085-291100-
CENTRAL UPPER MICHIGAN

CITY           SKY/WX    TMP DP  RH WIND       PRES   REMARKS
MANISTIQUE     PTCLDY    68  64  88 SW5       29.82F
ESCANABA       MOCLDY    72  68  88 SW3       29.80F
MENOMINEE      CLOUDY    73  66  78 SW7       29.82F
SAWYER-GWINN   CLOUDY    67  64  90 S9        29.79F
$$
MIZ001>003-009>011-084-291100-
WESTERN UPPER MICHIGAN

CITY           SKY/WX    TMP DP  RH WIND       PRES   REMARKS
IRON MOUNTAIN  MOCLDY    72  67  84 W3        29.82R
HOUGHTON       MOCLDY    72  56  57 W20G26    29.74F
COPPER HARBOR    N/A     75  58  55 W7        29.72S
IRONWOOD       CLEAR     66  52  59 SW16G22   29.77F
$$

ABBREVIATIONS USED IN REMARKS
   TC - TEMPERATURE IN CELSIUS
  WCI - WIND CHILL INDEX
   HX - HEAT INDEX
  VSB - VISIBILITY



USA.gov is the U.S. government's official web portal to all federal, state and local government web resources and services.